Location: Gleizolles
(44.4833°N, 6.7667°E)
Time: 16:28:11
(UTC+00:00)

Explorer 7 - Pass Details

Date: 25 June 2024
Orbit: 465 x 619 km, 50.3° (Epoch: 12 July)

Event Time Altitude Azimuth Distance (km) Brightness Sun altitude
Rises 13:10:44 0° 294° (WNW) 2,609 10.4 61.3°
Reaches altitude 10° 13:13:04 10° 302° (WNW) 1,698 9.6 61.0°
Maximum altitude 13:16:43 41° 13° (NNE) 717 7.7 60.5°
Drops below altitude 10° 13:20:13 10° 85° (E) 1,637 9.1 60.0°
Sets 13:22:26 0° 93° (E) 2,501 9.9 59.7°
